Regional Weather Roundup
Issued by NWS Huntsville, AL

Home | Current Version | Previous Version | Text Only | Print | Product List | Glossary On
Versions: 1 2 3 4 5 6 7 8 9 10 11 12 13 14 15 16 17 18 19 20 21 22 23 24 25 26 27 28 29 30 31 32 33 34 35 36 37 38 39 40 41 42 43 44 45 46 47 48 49 50
000
ASUS44 KHUN 211010
RWRHUN

WEATHER ROUNDUP FOR THE TENNESSEE VALLEY
NATIONAL WEATHER SERVICE HUNTSVILLE AL
500 AM CDT FRI JUL 21 2017

ALZ001>004-211100-
NORTHWEST ALABAMA

CITY           SKY/WX    TMP DP  RH WIND       PRES   REMARKS
COURTLAND HCN    N/A     73 N/A N/A CALM        N/A
RUSSELLVILLE     N/A     72 N/A N/A MISG        N/A
SHOALS AIRPORT CLEAR     75  72  90 CALM      30.03S
SHOALS TVA RES   N/A     75 N/A N/A MISG        N/A
$$

ALZ005>007-016-211100-
NORTH CENTRAL ALABAMA

CITY           SKY/WX    TMP DP  RH WIND       PRES   REMARKS
CULLMAN AG STN   N/A     73 N/A N/A CALM        N/A
DECATUR AP     CLEAR     72  72 100 MISG      30.03R
HUNTSVILLE AP  CLEAR     75  75 100 CALM      30.03R
MERIDIANVILLE  CLEAR     72  70  94 CALM      30.04S FOG
REDSTONE ARSN  CLEAR     74  72  95 CALM      30.03R
VINEMONT AP    FAIR      71  70  98 CALM      30.07R FOG
$$

ALZ008>010-211100-
NORTHEAST ALABAMA

CITY           SKY/WX    TMP DP  RH WIND       PRES   REMARKS
ALBERTVILLE      N/A     73  73 100 CALM      30.04S
FORT PAYNE     FOG       70  68  94 CALM      30.04S VSB 1/2
SCOTTSBORO AP  CLEAR     73  73 100 CALM      30.05R FOG
SCOTTSBORO HCN   N/A     73 N/A N/A MISG        N/A
VALLEY HEAD      N/A     70 N/A N/A MISG        N/A
$$

TNZ076-096-097-211100-
SOUTHEASTERN MIDDLE TENNESSEE

CITY           SKY/WX    TMP DP  RH WIND       PRES   REMARKS
TULLAHOMA      CLEAR     72  70  94 CALM      30.07R
WINCHESTER     CLEAR     72  70  94 CALM      30.06R
$$

...SURROUNDING SITES...

CITY           SKY/WX    TMP DP  RH WIND       PRES   REMARKS
ATLANTA        PTCLDY    77  73  87 NW6       30.03R
ANNISTON       MOCLDY    73  72  96 CALM      30.04R FOG
BIRMINGHAM     CLEAR     78  74  87 CALM      30.05R
CHATTANOOGA    CLEAR     75  73  93 CALM      30.04R
CORINTH        FAIR      73  73 100 CALM      30.02S FOG
DALTON         NOT AVBL
GADSDEN        CLOUDY    73  73 100 CALM      30.04R FOG
GOLDEN TRNGL   PTCLDY    75  68  78 CALM        N/A
JACKSON TN     CLEAR     73  72  96 CALM      30.02S FOG
MEMPHIS        CLEAR     80  76  87 CALM      30.01S
NASHVILLE      CLOUDY    76  73  91 CALM      30.04R
OXFORD MS      FAIR      73  72  94 CALM      30.05S
ROME           MOCLDY    75  75 100 CALM      30.02S FOG
SAVANNAH       CLEAR     73  72  94 CALM      30.02R FOG
SELMER         CLEAR     73  72  94 CALM      30.03S
TUPELO         CLEAR     78  74  87 CALM      30.01S
TUSCALOOSA     CLEAR     77  77 100 CALM      30.02R FOG
$$

...GULF COAST WEATHER...

CITY           SKY/WX    TMP DP  RH WIND       PRES   REMARKS
GULFPORT       CLOUDY    80  79  96 SW3       30.00R
PASCAGOULA     CLEAR     78  75  90 W3        29.99R
MOBILE         CLEAR     78  75  90 CALM      30.01R
GULF SHORES    SUNNY     76  76 100 CALM      29.98S
PENSACOLA      PTCLDY    77  75  93 CALM      29.98R
DESTIN         PTCLDY    81  76  84 CALM      29.98S
PANAMA CITY    CLOUDY    80  78  94 CALM      29.99R
APPALACHICOLA  CLOUDY    76  76 100 CALM      29.99S
$$




USA.gov is the U.S. government's official web portal to all federal, state and local government web resources and services.